[[{"header":{"parameterUnit":"m.s-1","parameterCategory":1,"la1":30.2991,"la2":30.254,"lo1":-89.0895,"lo2":-89.0444,"dy":0.0017,"dx":0.0017,"nx":28,"ny":28,"refTime":"2025-03-14T21:00:00:Z","depth":0,"parameterNumber":2,"parameterNumberName":"U-component_of_WINDS"},"data":[0,0,0,0,0,0,0,0,0,0,0,0,0,0,0,0,0,0,0,0,0,0,0,0,0,0,0,0,0,0,0,0,0,0,0,0,0,0,0,0,0,0,0,0,0,0,0,0,0,0,0,0,0,0,0,0,0,0,-0.725,-0.7251,0,-0.7365,-0.7367,-0.7368,-0.7462,-0.7463,-0.7464,-0.7465,-0.7583,-0.7585,-0.7587,0,0,0,0,0,0,0,0,0,0,0,0,0,-0.7109,-0.7111,-0.7249,-0.7251,-0.7252,-0.7365,-0.7367,-0.7368,-0.7462,-0.7463,-0.7464,-0.7465,-0.7582,-0.7585,-0.7587,0,0,0,0,0,0,0,0,0,0,0,0,0,-0.7192,-0.7112,-0.7249,-0.7313,-0.732,-0.7365,-0.7367,-0.7369,-0.7462,-0.7463,-0.7465,-0.7466,-0.7581,-0.7584,-0.7588,-0.7579,0,0,-0.7598,-0.7599,0,0,0,0,0,0,0,0,-0.7187,-0.7197,-0.7302,-0.7308,-0.7316,-0.7401,-0.7361,-0.7439,-0.7461,-0.7408,-0.7465,-0.7467,-0.7521,-0.7529,-0.7548,-0.7585,-0.759,-0.7598,-0.76,-0.7602,-0.7603,0,0,0,0,0,0,0,-0.7181,-0.7192,-0.7295,-0.7303,-0.7312,-0.7335,-0.7349,-0.7376,-0.7455,-0.7412,-0.742,-0.7432,-0.7525,-0.7544,-0.7551,-0.7592,-0.7598,-0.7601,-0.7603,-0.7605,-0.7628,-0.7627,0,0,0,0,0,0,-0.7166,-0.7187,-0.7292,-0.7299,-0.7254,-0.7337,-0.7352,-0.7372,-0.7455,-0.7469,-0.7431,-0.7436,-0.7538,-0.7547,-0.7556,-0.7552,-0.7602,-0.7605,-0.7607,-0.763,-0.7628,-0.7627,0,0,0,0,0,0,-0.7162,-0.7174,-0.7287,-0.7245,-0.7261,-0.7338,-0.736,-0.7374,-0.7393,-0.7469,-0.7483,-0.7436,-0.754,-0.7551,-0.7573,-0.7557,-0.7606,-0.7609,-0.7631,-0.7629,-0.7627,-0.7543,0,0,0,0,0,0,-0.7158,-0.7172,-0.717,-0.7244,-0.7263,-0.7302,-0.7359,-0.7375,-0.7399,-0.7407,-0.7477,-0.749,-0.7542,-0.7568,-0.7576,-0.7563,-0.7612,-0.7633,-0.763,-0.7628,-0.7548,-0.7539,-0.7531,0,0,0,0,0,-0.7153,-0.7141,-0.7169,-0.7181,-0.7261,-0.7301,-0.7312,-0.7371,-0.7397,-0.7395,-0.7444,-0.7488,-0.7558,-0.7569,-0.758,-0.7567,-0.7634,-0.7631,-0.7628,-0.7552,-0.754,-0.7531,0,0,0,0,0,0,-0.7062,-0.7152,-0.7184,-0.7197,-0.724,-0.7317,-0.7316,-0.7357,-0.7394,-0.74,-0.7472,-0.7487,-0.7501,-0.7537,-0.7548,-0.7564,-0.7602,-0.7601,-0.754,-0.753,-0.7522,-0.7513,-0.7615,0,0,0,0,0,-0.7044,-0.7069,-0.7146,-0.7149,-0.717,-0.7239,-0.7258,-0.73,-0.7349,-0.7367,-0.7418,-0.7463,-0.7495,-0.7514,-0.7548,-0.7554,-0.757,-0.755,-0.7542,-0.7534,-0.7532,-0.7538,-0.753,-0.7616,-0.7616,-0.7616,0,0,-0.7006,-0.7058,-0.7069,-0.7132,-0.7171,-0.7195,-0.7254,-0.7276,-0.7295,-0.7371,-0.7395,-0.7433,-0.7488,-0.7502,-0.751,-0.7531,-0.7512,-0.753,-0.7524,-0.7526,-0.7534,-0.7526,-0.7519,-0.7614,-0.7615,-0.7615,0,0,-0.695,-0.6991,-0.6999,-0.7037,-0.7096,-0.7142,-0.7144,-0.7214,-0.7243,-0.7268,-0.7326,-0.7349,-0.7402,-0.7439,-0.7465,-0.7423,-0.7465,-0.7432,-0.7387,-0.7392,-0.7386,-0.738,-0.7365,-0.7359,-0.743,-0.743,-0.743,0,-0.6895,-0.6934,-0.6998,-0.7017,-0.7044,-0.7114,-0.7123,-0.7156,-0.7222,-0.7239,-0.7262,-0.7331,-0.7373,-0.7397,-0.7387,-0.7405,-0.741,-0.7424,-0.7381,-0.7376,-0.7372,-0.7359,-0.7353,-0.7426,-0.7426,-0.7427,-0.7427,0,-0.6864,-0.689,-0.6889,-0.6952,-0.6978,-0.6991,-0.7058,-0.7077,-0.7117,-0.716,-0.7185,-0.7238,-0.7284,-0.7293,-0.7332,-0.7322,-0.7334,-0.7368,-0.7408,-0.7358,-0.7347,-0.7342,-0.7419,-0.7421,-0.7422,-0.7423,0,0,-0.6753,-0.6852,-0.6851,-0.688,-0.695,-0.6971,-0.6988,-0.7034,-0.7048,-0.7092,-0.7108,-0.7152,-0.7185,-0.7214,-0.7258,-0.7262,-0.7226,-0.7296,-0.7299,-0.7281,-0.7219,-0.7192,-0.7185,-0.7255,-0.7254,-0.7253,-0.7214,0,-0.6708,-0.6743,-0.6802,-0.6817,-0.6842,-0.691,-0.6925,-0.6969,-0.7011,-0.7038,-0.7084,-0.7114,-0.7155,-0.7173,-0.718,-0.7229,-0.7214,-0.7232,-0.727,-0.7271,-0.7254,-0.7179,-0.7151,-0.7112,-0.721,-0.7209,-0.7209,0,-0.666,-0.67,-0.6718,-0.6786,-0.6799,-0.6811,-0.6858,-0.6883,-0.6935,-0.6965,-0.6998,-0.7046,-0.7068,-0.7104,-0.7135,-0.7146,-0.7166,-0.7192,-0.7192,-0.7197,-0.7236,-0.7183,-0.7101,-0.7094,-0.7202,-0.7203,-0.7203,0,-0.6577,-0.6635,-0.6654,-0.6677,-0.6758,-0.6765,-0.6799,-0.6852,-0.6876,-0.6917,-0.6933,-0.6975,-0.6998,-0.703,-0.7089,-0.711,-0.7113,-0.7155,-0.7139,-0.7137,-0.7136,-0.7135,-0.7056,-0.7148,-0.7149,-0.7149,-0.7149,0,-0.652,-0.6529,-0.6618,-0.663,-0.6641,-0.6709,-0.6718,-0.6759,-0.6806,-0.6826,-0.6887,-0.6905,-0.6981,-0.7008,-0.7054,-0.7073,-0.7083,-0.7108,-0.712,-0.7102,-0.7099,-0.7116,-0.712,-0.7147,-0.7148,-0.7148,-0.7148,0,-0.643,-0.649,-0.6515,-0.659,-0.6609,-0.6614,-0.6678,-0.6691,-0.6737,-0.6762,-0.6772,-0.6843,-0.6877,-0.6939,-0.6991,-0.7022,-0.7032,-0.7053,-0.7014,-0.7021,-0.7002,-0.7003,-0.693,-0.6924,-0.702,-0.7019,-0.7018,0,-0.639,-0.6398,-0.6473,-0.6492,-0.6523,-0.6552,-0.6576,-0.6643,-0.6666,-0.6726,-0.6733,-0.6772,-0.6808,-0.686,-0.6916,-0.6957,-0.6979,-0.6951,-0.6985,-0.6967,-0.6979,-0.6977,-0.6978,-0.6942,-0.6941,-0.694,-0.6939,0,-0.6312,-0.6342,-0.6375,-0.6418,-0.6446,-0.6483,-0.6524,-0.6535,-0.6612,-0.6634,-0.6671,-0.6698,-0.6752,-0.679,-0.6839,-0.6874,-0.6919,-0.6928,-0.6926,-0.6908,-0.6885,-0.6897,-0.6992,-0.6929,-0.693,-0.6931,-0.6931,-0.6932,-0.6246,-0.6257,-0.6311,-0.6346,-0.6384,-0.6421,-0.6437,-0.6485,-0.6516,-0.6565,-0.6603,-0.6636,-0.6689,-0.6759,-0.6791,-0.6819,-0.6839,-0.6837,-0.6837,-0.6835,-0.6828,-0.6881,-0.6828,-0.6828,-0.6828,-0.6829,-0.6829,0,-0.6172,-0.621,-0.6242,-0.6297,-0.6324,-0.6364,-0.6412,-0.6432,-0.6461,-0.6506,-0.6539,-0.6581,-0.6619,-0.6678,-0.6721,-0.6731,-0.6753,-0.674,-0.674,-0.6747,-0.6807,-0.6804,-0.6722,-0.6722,-0.6722,-0.6722,-0.6722,-0.6722,-0.6136,-0.6156,-0.6192,-0.6231,-0.627,-0.6304,-0.6327,-0.6361,-0.6398,-0.6442,-0.6474,-0.6512,-0.6563,-0.661,-0.6646,-0.6663,-0.6676,-0.6656,-0.6679,-0.6733,-0.6743,-0.6753,-0.675,-0.6659,-0.6658,-0.6618,-0.6617,-0.6617]},{"header":{"parameterUnit":"m.s-1","parameterCategory":1,"la1":30.2991,"la2":30.254,"lo1":-89.0895,"lo2":-89.0444,"dy":0.0017,"dx":0.0017,"nx":28,"ny":28,"refTime":"2025-03-14T21:00:00:Z","depth":0,"parameterNumber":3,"parameterNumberName":"V-component_of_WINDS"},"data":[0,0,0,0,0,0,0,0,0,0,0,0,0,0,0,0,0,0,0,0,0,0,0,0,0,0,0,0,0,0,0,0,0,0,0,0,0,0,0,0,0,0,0,0,0,0,0,0,0,0,0,0,0,0,0,0,0,0,8.9422,8.9424,0,8.9668,8.967,8.9673,8.9702,8.97,8.9698,8.9695,8.9945,8.9954,8.9963,0,0,0,0,0,0,0,0,0,0,0,0,0,8.8979,8.8987,8.9421,8.9425,8.9428,8.9667,8.9671,8.9674,8.9703,8.97,8.9697,8.9694,8.9942,8.9953,8.9963,0,0,0,0,0,0,0,0,0,0,0,0,0,8.9192,8.8989,8.9421,8.9471,8.9478,8.9667,8.9671,8.9675,8.9703,8.97,8.9696,8.9693,8.9939,8.9952,8.9965,9.012,0,0,9.0006,9.0012,0,0,0,0,0,0,0,0,8.918,8.9209,8.9461,8.9468,8.9476,8.9651,8.9606,8.9824,8.9704,8.9618,8.9695,8.9691,8.985,8.987,8.9925,9.0132,9.0142,9.0007,9.0015,9.0021,9.0025,0,0,0,0,0,0,0,8.9165,8.9198,8.9519,8.9464,8.9474,8.9482,8.9508,8.9648,8.9751,8.9625,8.9628,8.9657,8.9854,8.9912,8.9931,9.0146,9.0007,9.0018,9.0027,9.0032,9.0499,9.0503,0,0,0,0,0,0,8.9141,8.9186,8.9511,8.9526,8.9316,8.9493,8.9522,8.9598,8.975,8.9769,8.9659,8.9657,8.9891,8.9915,8.9939,9.0135,9.0021,9.0033,9.0041,9.0495,9.05,9.0505,0,0,0,0,0,0,8.9132,8.917,8.9501,8.9357,8.94,8.9504,8.9589,8.9605,8.9663,8.9776,8.9794,8.97,8.9889,8.9921,9.0077,9.0144,9.0039,9.0051,9.049,9.0496,9.0503,9.0525,0,0,0,0,0,0,8.9119,8.9166,8.9226,8.9358,8.9407,8.9633,8.9593,8.9612,8.9686,8.9686,8.9818,8.9837,8.9888,9.0056,9.009,9.0161,9.0062,9.0484,9.0493,9.05,9.0519,9.0532,9.0543,0,0,0,0,0,8.9103,8.922,8.9228,8.9267,8.9483,8.9637,8.9665,8.9723,8.9691,8.9753,8.9826,8.9833,9.0131,9.0072,9.011,9.0186,9.048,9.049,9.05,9.0513,9.0529,9.0542,0,0,0,0,0,0,8.9091,8.9238,8.9249,8.9413,8.9513,8.9642,8.972,8.9736,8.9846,8.9841,8.9907,8.9937,9.0091,9.0153,9.0085,9.0347,9.0303,9.0321,9.03,9.0316,9.0328,9.031,9.0073,0,0,0,0,0,8.9108,8.922,8.9343,8.9475,8.9525,8.9614,8.9683,8.9719,8.9825,8.9867,8.9951,9.0054,9.0171,9.0247,9.036,9.0528,9.056,9.0599,9.0611,9.062,9.0635,9.0734,9.0754,9.0537,9.0537,9.0537,0,0,8.9142,8.9237,8.9304,8.9476,8.9557,8.9674,8.9649,8.9772,8.986,8.9885,9.0039,9.0105,9.0224,9.0387,9.0464,9.0445,9.0703,9.0633,9.0639,9.065,9.0746,9.0766,9.0785,9.0544,9.0543,9.0542,0,0,8.9267,8.9348,8.947,8.9553,8.9678,8.9738,8.9767,8.9896,8.9941,9.0097,9.012,9.0225,9.0424,9.051,9.0579,9.0742,9.0754,9.0777,9.0839,9.0935,9.0952,9.0967,9.1029,9.105,9.0791,9.0791,9.0791,0,8.9294,8.947,8.953,8.9655,8.9731,8.9762,8.9888,8.9965,9.012,9.0173,9.015,9.0405,9.0487,9.0673,9.0714,9.0767,9.0805,9.0762,9.0944,9.0961,9.0976,9.1036,9.1058,9.0794,9.0793,9.0793,9.0793,0,8.95,8.9622,8.9706,8.9858,8.9944,9.0068,9.0148,9.0228,9.0258,9.032,9.0481,9.0581,9.0718,9.0765,9.0793,9.0957,9.0942,9.0931,9.0888,9.0998,9.1055,9.1078,9.0797,9.0796,9.0795,9.0795,0,0,8.9621,8.9808,8.9838,8.991,9.0053,9.0149,9.0275,9.0411,9.0481,9.0587,9.0698,9.0868,9.0861,9.094,9.0979,9.1062,9.119,9.1042,9.1045,9.1068,9.1382,9.1391,9.1416,9.1198,9.1203,9.1206,9.1373,0,8.9763,8.9991,9.0052,9.0246,9.0362,9.0395,9.0507,9.0607,9.067,9.0778,9.0847,9.0969,9.0947,9.0996,9.108,9.1156,9.1254,9.1145,9.1303,9.1308,9.1275,9.1445,9.1455,9.1607,9.1395,9.1399,9.1402,0,8.9959,9.0074,9.028,9.0413,9.0464,9.0563,9.0695,9.0797,9.0913,9.0954,9.1045,9.1077,9.1214,9.1163,9.1354,9.1278,9.1347,9.1395,9.1402,9.1421,9.1363,9.1471,9.1656,9.168,9.1437,9.1434,9.1431,0,9.0031,9.0237,9.0388,9.0448,9.0605,9.0675,9.0744,9.0856,9.0936,9.1052,9.1105,9.1234,9.1305,9.1405,9.1473,9.1429,9.1659,9.1613,9.1698,9.1697,9.1746,9.1742,9.1947,9.1786,9.1786,9.1785,9.1785,0,9.0186,9.0311,9.0424,9.0517,9.066,9.0729,9.0869,9.0939,9.104,9.1149,9.1185,9.1286,9.1369,9.1482,9.1536,9.1688,9.1719,9.1757,9.177,9.1755,9.1751,9.1802,9.1794,9.1791,9.179,9.1789,9.1788,0,9.029,9.037,9.0538,9.0675,9.0712,9.0812,9.093,9.1023,9.1089,9.1226,9.1263,9.1365,9.1502,9.1579,9.1749,9.1786,9.1956,9.1962,9.1917,9.1924,9.2006,9.1998,9.2252,9.2291,9.2101,9.2103,9.2104,0,9.0384,9.0482,9.0631,9.0708,9.0778,9.09,9.0983,9.1056,9.1141,9.1283,9.136,9.1499,9.1614,9.183,9.192,9.2052,9.2064,9.2144,9.2083,9.2067,9.2069,9.2064,9.2076,9.2154,9.2156,9.2157,9.2159,0,9.0544,9.058,9.0698,9.0832,9.093,9.1039,9.1146,9.1207,9.1298,9.1392,9.1533,9.1622,9.1799,9.1937,9.2078,9.2149,9.2171,9.2177,9.2205,9.2191,9.2163,9.2183,9.1949,9.2171,9.217,9.2169,9.2168,9.2168,9.0648,9.0739,9.086,9.0992,9.1081,9.1182,9.1278,9.1358,9.1476,9.1627,9.1663,9.1812,9.193,9.2121,9.2197,9.2316,9.2302,9.234,9.2351,9.236,9.2364,9.2142,9.2341,9.2341,9.2341,9.2341,9.234,0,9.0813,9.0893,9.1014,9.1166,9.1271,9.1283,9.1404,9.1491,9.1622,9.1731,9.1845,9.2009,9.2145,9.2248,9.2387,9.2463,9.2477,9.2498,9.2494,9.2511,9.2367,9.2331,9.2485,9.2485,9.2485,9.2485,9.2484,9.2484,9.0911,9.1067,9.1118,9.1321,9.14,9.1548,9.1617,9.1712,9.18,9.1982,9.2096,9.2163,9.2271,9.2419,9.2546,9.2573,9.2624,9.2644,9.2672,9.2536,9.252,9.2506,9.2473,9.2653,9.2653,9.2807,9.2808,9.2809]}]]